Theta_e
326 327 327 325 323 322 321 316 317 318 319 319 319 318 318 317 315 316 315 315 315 314 314 315 314 315 316 314 314 315 314 314 316 314 314 314 314 315 315 315 315 317 317
326 326 327 326 325 324 319 317 315 317 318 319 319 319 318 318 317 315 315 315 315 315 315 314 310 314 315 316 316 316 316 315 316 317 317 317 316 316 316 317 317 317 317
326 326 325 325 325 321 316 318 318 317 317 318 319 319 319 319 318 318 317 315 315 316 316 315 309 311 313 315 317 317 318 318 318 317 316 317 317 316 317 315 317 318 317
326 324 324 323 321 318 319 320 320 320 320 319 318 319 319 319 319 319 319 317 316 316 313 309 308 310 313 316 317 317 317 316 316 317 318 317 318 317 318 319 319 319 319
326 325 321 319 321 321 322 322 322 322 322 322 321 321 321 321 320 320 319 319 318 318 314 309 309 311 316 317 318 318 318 319 317 317 316 316 315 315 317 317 318 319 319
321 319 321 322 322 322 322 322 322 324 323 323 322 322 321 321 320 321 321 320 320 319 317 312 313 312 317 319 318 318 318 319 319 319 318 318 318 319 318 317 318 318 319
323 323 324 323 324 323 323 322 321 322 322 322 322 322 322 322 322 320 320 320 321 320 319 312 315 316 317 318 316 317 318 318 320 319 318 318 318 319 318 316 317 318 318
325 326 325 324 324 325 325 324 324 323 323 323 323 323 323 323 322 321 320 320 320 320 319 310 315 317 319 319 318 317 316 315 316 315 316 317 319 319 315 314 315 316 318
324 324 324 325 324 323 322 323 322 321 321 321 321 321 321 321 321 321 322 321 320 320 319 311 315 317 318 319 318 319 318 315 315 317 319 319 319 315 315 317 315 316 317
322 320 317 316 317 316 316 316 316 315 315 315 314 317 318 319 319 320 320 320 321 320 318 313 313 317 319 318 318 319 318 315 314 315 319 319 318 318 319 319 318 316 316
315 315 315 314 313 313 313 312 311 311 311 314 312 310 310 311 313 314 315 316 318 319 319 315 313 312 316 317 318 318 318 316 314 312 313 315 317 318 319 318 319 318 317
312 311 308 305 306 306 305 302 302 306 305 308 307 304 300 301 302 301 305 305 310 312 317 316 315 314 312 316 317 317 318 317 317 313 313 313 317 318 319 319 318 319 317
303 299 298 299 300 299 298 299 300 299 300 299 299 299 297 296 296 295 294 294 296 303 309 312 315 315 314 312 312 314 314 316 317 316 316 313 315 318 319 317 318 318 317
296 297 298 298 297 296 297 297 297 297 297 297 296 296 295 295 295 294 294 294 293 293 294 302 309 313 312 314 314 316 317 317 317 317 317 318 318 318 319 317 318 316 316
296 296 297 297 296 296 296 296 297 296 296 296 296 296 295 295 295 294 294 294 294 295 297 299 297 300 307 312 314 313 314 315 317 318 318 318 318 319 319 318 317 317 316
296 295 295 296 296 295 295 295 295 295 296 296 296 295 295 295 295 294 294 294 295 297 298 299 298 298 298 302 307 309 311 313 314 317 317 318 318 318 317 319 318 316 316
296 295 295 295 295 295 294 295 294 295 295 295 295 295 295 296 294 294 294 295 296 297 297 299 299 298 298 297 297 300 304 306 309 310 315 317 317 318 317 318 318 317 317
295 296 295 294 294 294 294 294 295 295 295 295 295 295 295 295 294 293 294 296 296 295 295 295 295 296 296 296 297 296 299 304 305 307 311 315 317 318 317 317 318 318 317
295 296 295 294 293 293 294 294 295 295 295 295 294 294 295 294 293 293 295 295 295 295 295 295 293 293 294 294 295 295 295 297 300 302 306 310 312 318 318 318 318 318 318
295 295 295 294 293 293 294 295 294 295 295 294 294 294 295 294 293 293 294 294 294 293 292 292 292 291 292 292 293 293 294 296 297 298 300 304 309 314 315 317 318 318 317
295 295 294 294 294 294 293 293 295 294 294 294 294 295 294 294 294 294 294 294 293 292 292 291 291 291 291 291 292 292 293 294 295 296 296 299 302 308 310 315 317 318 318
295 294 294 294 294 293 292 293 294 294 294 294 294 294 294 294 294 294 294 293 292 291 292 292 292 290 290 290 291 292 292 292 292 293 295 295 300 305 305 308 313 317 317
294 293 293 293 292 292 292 294 294 294 294 293 294 294 294 294 294 294 294 293 292 291 291 292 291 291 290 289 290 291 291 290 289 289 290 293 296 298 302 308 309 315 317
292 292 291 291 291 292 293 294 294 294 294 293 294 293 293 293 293 293 293 293 293 292 292 291 291 291 291 290 289 290 290 289 288 288 289 290 293 297 300 305 307 310 315
292 291 292 292 293 294 294 294 294 294 293 293 293 293 293 293 293 293 293 293 292 292 292 291 291 291 291 289 289 290 290 289 288 287 288 289 290 293 297 300 301 306 313
292 292 293 293 294 293 293 293 293 292 292 292 292 292 292 292 292 292 291 292 292 292 292 292 292 291 291 290 289 288 288 288 287 286 288 289 290 290 294 298 300 303 308
Wind_Speed
9 10 8 5 3 7 11 11 9 9 10 11 10 11 13 16 14 13 16 16 15 14 14 17 20 20 19 17 15 16 16 17 24 25 22 20 21 23 24 19 12 12 13
12 12 9 10 8 9 14 10 7 9 11 11 11 12 14 17 16 15 18 17 16 17 20 21 23 18 18 18 18 17 18 18 22 25 24 23 22 23 24 19 13 10 13
9 8 9 7 8 12 9 8 8 9 11 10 10 14 17 18 18 20 20 17 15 21 24 28 27 20 20 19 15 17 18 16 17 22 27 26 25 21 21 14 13 10 11
7 7 5 6 11 8 7 10 12 12 13 13 12 14 17 20 21 22 22 22 21 21 28 27 26 24 16 16 16 18 18 17 17 18 18 19 20 15 13 16 16 10 12
9 5 7 4 6 9 12 14 16 18 19 18 18 18 19 20 22 23 23 24 25 27 27 26 27 21 13 15 18 18 17 18 18 17 17 17 16 17 17 17 19 17 13
7 2 3 6 9 12 12 13 15 17 18 18 22 25 25 25 25 24 24 25 26 28 29 28 23 13 11 15 16 17 18 19 20 19 18 19 17 18 20 19 17 16 15
5 4 7 6 7 9 14 15 16 17 18 21 24 23 23 25 25 27 25 25 26 27 28 27 18 12 13 17 18 17 17 17 18 19 22 21 20 17 19 17 15 14 16
8 10 9 11 11 12 12 15 18 21 21 21 22 21 21 22 23 22 21 22 23 24 25 21 16 16 15 13 12 12 15 18 18 20 22 22 19 17 15 17 16 15 14
9 7 10 13 17 19 20 22 21 21 21 20 22 24 24 24 25 24 23 22 21 19 20 16 15 17 19 14 15 17 19 19 14 13 17 16 13 11 13 15 14 14 14
8 10 12 15 17 15 15 19 20 20 19 21 21 18 18 18 20 20 20 18 21 20 17 15 14 11 16 18 20 18 19 16 15 12 13 10 10 13 15 16 14 14 15
11 13 14 14 14 14 16 19 20 17 15 15 14 17 19 20 20 20 17 15 15 20 21 19 19 20 15 13 12 16 17 16 15 16 16 13 13 14 16 17 15 14 15
12 13 13 12 13 16 18 18 12 10 8 7 7 9 19 24 26 26 26 25 17 18 23 23 21 21 20 17 18 18 19 20 22 20 16 14 15 16 18 18 16 13 11
13 13 10 12 15 16 12 10 12 14 16 17 16 20 25 23 26 25 24 25 25 24 21 21 24 23 22 24 23 23 21 21 19 19 19 17 15 16 15 14 9 10 13
14 11 10 14 16 9 10 12 15 15 15 18 20 20 19 18 23 27 27 27 24 22 20 20 20 23 21 23 21 20 14 17 22 22 18 13 13 16 15 10 10 11 10
14 12 10 14 11 13 12 11 15 14 14 18 18 15 15 17 22 23 28 26 23 23 20 18 15 14 16 16 19 16 12 14 19 21 22 18 17 16 13 12 10 11 11
15 13 12 11 15 15 16 12 14 13 14 16 12 15 15 17 18 20 30 21 22 17 18 15 19 23 23 18 17 16 16 13 11 10 14 17 16 17 16 15 15 15 12
14 12 16 11 13 17 13 18 16 13 13 15 16 17 19 22 13 18 29 22 20 19 18 14 18 22 26 27 25 21 21 15 14 15 9 11 15 16 15 17 18 20 18
13 12 15 19 17 11 16 14 18 16 17 13 20 14 21 12 8 18 19 15 14 16 17 16 19 21 23 25 26 30 19 20 16 14 8 9 10 15 15 17 19 22 24
13 14 16 15 15 18 16 19 15 16 14 18 23 15 21 9 15 19 11 13 15 17 19 20 21 19 18 21 22 24 29 22 18 17 11 10 8 12 15 16 16 18 24
16 10 17 16 17 19 21 19 19 16 18 21 16 19 17 18 18 14 10 10 13 17 22 21 18 16 16 18 18 20 22 26 21 18 17 12 9 5 4 6 12 11 22
16 15 20 15 20 18 23 19 17 21 19 17 17 15 18 19 19 6 10 13 15 17 17 17 17 18 17 19 17 20 20 18 17 17 20 16 12 9 8 3 6 13 14
18 18 18 20 20 22 23 19 19 17 15 13 15 16 15 16 12 14 8 12 12 11 13 14 17 19 17 16 19 21 14 21 23 24 22 22 17 11 13 9 4 3 18
15 13 18 23 25 24 23 20 19 16 17 16 14 14 14 12 14 16 13 11 11 12 13 14 17 15 18 16 16 17 22 27 29 27 25 24 21 17 15 11 8 3 13
20 23 25 24 22 19 21 16 16 14 15 17 16 15 15 17 16 16 17 16 9 13 15 15 14 15 17 17 15 17 19 26 26 28 26 23 20 22 15 10 8 5 3
25 20 18 20 19 17 15 16 15 14 16 16 17 18 20 18 16 15 14 15 16 13 16 16 15 12 14 14 19 16 21 28 26 29 27 24 19 15 16 17 17 9 2
19 20 18 17 17 15 15 15 17 16 18 20 22 21 18 19 21 23 22 21 21 19 19 18 17 13 16 20 20 17 22 26 28 27 27 25 23 20 15 18 19 13 7
Wind_Direction
190 184 183 187 225 299 323 320 278 281 297 307 313 310 310 326 322 304 302 315 317 323 308 308 311 308 311 310 297 300 288 291 298 299 305 312 310 305 303 306 302 297 265
190 202 207 220 250 301 323 328 294 272 285 290 295 297 298 308 313 309 307 308 309 308 300 314 319 297 303 302 305 301 293 290 287 295 301 302 304 302 306 295 297 306 274
178 205 196 216 278 317 324 335 323 305 294 296 291 289 294 301 301 307 312 311 299 294 298 308 314 306 286 286 303 291 299 303 296 287 290 296 302 312 308 285 288 300 272
192 185 215 283 306 305 324 330 331 331 325 318 305 295 296 299 300 301 307 302 296 299 306 306 308 310 278 283 287 294 303 298 300 299 298 297 301 320 317 310 307 297 283
197 238 282 314 331 324 321 319 323 320 322 319 313 308 304 300 299 297 299 303 303 305 309 313 310 300 263 280 286 298 300 300 300 308 300 301 307 317 322 315 301 299 286
290 331 333 315 302 303 302 304 314 319 309 304 305 306 301 296 297 292 288 291 296 302 309 315 315 289 266 282 291 282 282 290 290 294 301 299 304 312 311 300 297 299 281
14 318 275 253 273 257 284 283 285 287 289 291 293 301 300 298 294 291 292 291 290 298 309 316 307 291 290 295 297 284 288 298 284 289 292 291 297 304 305 305 293 279 278
213 205 207 233 252 260 271 278 284 290 298 304 303 304 306 301 294 290 284 283 287 290 307 309 305 311 304 298 299 306 311 307 292 288 286 287 290 297 297 302 296 282 268
229 252 262 262 269 288 292 290 296 302 303 303 308 305 304 301 298 296 293 288 284 285 297 307 309 307 308 292 287 301 308 314 301 289 291 290 282 289 296 298 300 276 267
274 290 293 296 300 313 304 300 307 310 314 311 312 305 305 305 303 302 299 293 279 267 270 277 286 293 290 294 291 286 297 314 314 300 296 288 286 298 291 289 289 282 257
281 287 295 301 302 294 294 303 312 322 322 327 342 338 322 316 318 318 314 307 283 260 261 264 272 276 277 283 280 283 294 306 311 304 298 282 287 304 297 289 281 275 264
301 305 307 303 298 302 312 319 335 339 352 329 313 336 345 325 321 328 321 319 306 296 267 263 265 273 275 269 272 278 280 290 296 294 292 283 288 305 303 292 280 257 258
319 327 324 312 308 319 331 353 331 323 321 328 325 321 325 328 326 334 337 337 325 307 295 289 277 274 276 279 281 286 282 280 287 288 288 284 283 305 305 296 247 237 251
339 339 334 319 328 345 359 351 338 338 333 330 334 336 341 346 348 349 352 347 340 332 325 303 295 283 289 276 276 280 287 289 291 286 278 288 283 295 293 282 247 244 247
338 333 325 336 356 344 338 335 341 330 332 333 333 333 333 339 343 340 348 346 342 339 343 354 336 315 293 290 267 281 277 293 282 280 281 277 295 273 272 270 247 234 225
340 349 2 4 351 331 328 333 332 331 339 334 344 344 338 326 326 332 349 340 341 331 336 354 7 7 9 335 315 324 302 286 315 284 269 272 272 269 280 256 246 223 220
334 355 351 346 325 324 333 329 326 342 334 322 325 322 325 317 321 348 352 342 336 353 9 344 355 8 9 10 8 315 316 315 308 335 304 294 266 255 261 250 237 222 217
345 340 317 321 328 330 328 318 328 333 333 336 337 321 328 316 343 347 348 337 352 8 27 30 22 23 16 9 4 1 333 307 314 326 334 332 268 228 263 251 242 230 218
338 331 321 329 329 324 321 326 325 324 323 324 325 326 331 328 340 347 335 347 342 340 335 337 343 347 359 1 360 3 3 351 334 328 330 350 338 233 244 245 243 231 217
333 321 316 313 318 329 329 328 319 317 316 319 322 327 331 332 333 323 308 331 325 335 332 338 341 355 11 2 351 345 348 357 356 347 342 330 346 286 266 252 237 231 216
316 306 310 315 316 310 314 321 322 313 312 312 320 322 315 321 328 280 318 303 318 329 330 336 350 352 350 354 7 14 3 339 355 0 352 347 341 319 341 288 277 241 232
298 306 311 312 314 313 311 313 317 315 310 316 313 313 317 314 338 333 309 298 307 320 323 330 339 351 352 354 2 358 1 349 343 334 325 328 342 332 329 351 22 79 216
311 301 301 301 300 303 308 311 312 313 313 315 320 315 325 331 321 312 312 312 303 320 315 322 337 335 350 358 353 349 350 350 349 341 332 317 316 323 329 335 352 45 201
313 308 304 300 301 306 308 312 313 313 312 313 313 320 314 308 303 325 325 313 305 302 308 311 328 324 326 342 355 337 337 348 355 0 358 343 308 304 308 314 320 321 181
315 310 312 313 309 309 315 318 308 312 316 310 306 306 303 298 293 293 313 308 308 304 303 306 310 321 313 327 335 334 329 330 340 351 357 357 352 313 291 287 299 328 235
320 319 312 306 318 317 316 313 315 317 311 307 305 304 300 296 300 298 298 293 294 293 287 288 291 292 295 299 312 315 313 322 328 333 348 355 357 357 309 286 290 298 289